Alpine, TX

5:22 PM CST on November 23, 2017 (GMT -0600)
Alpine

Weather History for KE38 - February, 2014

Change the Weather History Date:

Saturday, February 22, 2014

  Actual Average (KMRF) Record (KMRF)
Temperature  
Mean Temperature 60 °F -  
Max Temperature 78 °F 58 °F 82 °F (2017)
Min Temperature 42 °F 29 °F 8 °F (2009)
Degree Days  
Heating Degree Days 5    
Growing Degree Days 10 (Base 50)    
Moisture  
Dew Point 10 °F    
Average Humidity 15    
Maximum Humidity 27    
Minimum Humidity 7    
Precipitation  
Precipitation 0.00 in - - ()
Sea Level Pressure  
Sea Level Pressure 30.03 in    
Wind  
Wind Speed 8 mph (WSW)    
Max Wind Speed 16 mph    
Max Gust Speed 23 mph    
Visibility 10 miles    
Events      
Averages and records for this station are not official NWS values.
T = Trace of Precipitation, MM = Missing Value Source: NWS Daily Summary

Daily Weather History Graph

Daily Weather History Graph

Search for Another Location

Airport or City:

Trip Planner

Search our weather history database for the weather conditions in past years. The results will help you decide how hot, cold, wet, or windy it might be!

Date:

Astronomy

Feb. 22, 2014 Rise Set
Actual Time 7:28 AM CST 6:48 PM CST
Civil Twilight 7:03 AM CST 7:12 PM CST
Nautical Twilight 6:35 AM CST 7:40 PM CST
Astronomical Twilight 6:08 AM CST 8:08 PM CST
Moon 1:16 AM CST (2/22) 12:12 PM CST (2/22)
Length of Visible Light 12h 08m
Length of Day
11h 20m
Waning Gibbous, 50% of the Moon is Illuminated
Feb 22
Waning Gibbous
Mar 1
New
Mar 8
First Quarter
Mar 16
Full
Mar 23
Last Quarter

Hourly Weather History & Observations

Time (CST) Temp. Windchill Dew Point Humidity Pressure Visibility Wind Dir Wind Speed Gust Speed Precip Events Conditions
12:15 AM 56.5 °F - 11.5 °F 17% 30.07 in 10.0 mi SW 5.8 mph - N/A   Clear
12:35 AM 53.4 °F - 11.7 °F 19% 30.07 in 10.0 mi SW 9.2 mph - N/A   Clear
12:55 AM 51.8 °F - 12.0 °F 20% 30.07 in 10.0 mi SW 8.1 mph - N/A   Clear
1:15 AM 53.2 °F - 12.9 °F 20% 30.06 in 10.0 mi SW 9.2 mph - N/A   Clear
1:35 AM 54.1 °F - 13.3 °F 20% 30.06 in 10.0 mi WSW 3.5 mph - N/A   Clear
1:55 AM 52.2 °F - 13.1 °F 21% 30.06 in 10.0 mi SW 9.2 mph - N/A   Clear
2:15 AM 52.5 °F - 13.5 °F 21% 30.06 in 10.0 mi SW 11.5 mph - N/A   Clear
2:40 AM 48.7 °F - 13.1 °F 24% 30.06 in 10.0 mi WSW 5.8 mph - N/A   Clear
2:55 AM 46.8 °F - 12.7 °F 25% 30.05 in 10.0 mi SSW 5.8 mph - N/A   Clear
3:15 AM 49.6 °F - 13.3 °F 23% 30.04 in 10.0 mi SW 9.2 mph - N/A   Clear
3:35 AM 45.7 °F 41.0 °F 12.6 °F 26% 30.04 in 10.0 mi SSW 9.2 mph - N/A   Clear
3:55 AM 46.0 °F 42.5 °F 13.1 °F 27% 30.04 in 10.0 mi SW 6.9 mph - N/A   Clear
4:15 AM 46.9 °F - 12.7 °F 25% 30.04 in 10.0 mi SSW 3.5 mph - N/A   Clear
4:35 AM 48.4 °F - 13.1 °F 24% 30.04 in 10.0 mi SW 11.5 mph - N/A   Clear
4:55 AM 47.1 °F - 12.2 °F 25% 30.04 in 10.0 mi WSW 6.9 mph - N/A   Clear
5:15 AM 45.5 °F 41.8 °F 11.1 °F 25% 30.04 in 10.0 mi SW 6.9 mph - N/A   Clear
5:35 AM 45.9 °F 44.6 °F 10.4 °F 24% 30.05 in 10.0 mi West 3.5 mph - N/A   Clear
5:55 AM 45.5 °F 41.8 °F 11.5 °F 25% 30.05 in 10.0 mi WSW 6.9 mph - N/A   Clear
6:15 AM 44.8 °F 41.6 °F 11.3 °F 26% 30.05 in 10.0 mi SW 5.8 mph - N/A   Clear
6:35 AM 45.3 °F 44.0 °F 11.3 °F 25% 30.06 in 10.0 mi SW 3.5 mph - N/A   Clear
6:55 AM 45.1 °F 42.0 °F 10.2 °F 24% 30.06 in 10.0 mi SW 5.8 mph - N/A   Clear
7:15 AM 42.8 °F - 10.8 °F 27% 30.06 in 10.0 mi Calm Calm - N/A   Clear
7:35 AM 42.6 °F 38.4 °F 10.8 °F 27% 30.06 in 10.0 mi SSW 6.9 mph - N/A   Clear
7:55 AM 42.6 °F 39.0 °F 10.8 °F 27% 30.07 in 10.0 mi SW 5.8 mph - N/A   Clear
8:15 AM 47.1 °F - 11.3 °F 24% 30.07 in 10.0 mi SSW 9.2 mph - N/A   Clear
8:35 AM 50.9 °F - 11.3 °F 20% 30.07 in 10.0 mi SSW 6.9 mph - N/A   Clear
8:55 AM 57.9 °F - 10.8 °F 15% 30.08 in 10.0 mi SSW 5.8 mph - N/A   Clear
9:15 AM 65.1 °F - 10.0 °F 12% 30.08 in 10.0 mi SSW 6.9 mph - N/A   Clear
9:35 AM 67.1 °F - 8.4 °F 10% 30.08 in 10.0 mi SW 8.1 mph - N/A   Clear
9:55 AM 69.4 °F - 7.9 °F 9% 30.08 in 10.0 mi SW 6.9 mph - N/A   Clear
10:15 AM 71.2 °F - 7.0 °F 8% 30.08 in 10.0 mi WSW 11.5 mph - N/A   Clear
10:35 AM 71.8 °F - 7.9 °F 8% 30.08 in 10.0 mi WSW 8.1 mph - N/A   Clear
10:55 AM 72.5 °F - 8.8 °F 9% 30.08 in 10.0 mi WSW 5.8 mph - N/A   Clear
11:15 AM 73.6 °F - 8.4 °F 8% 30.08 in 10.0 mi West 9.2 mph - N/A   Clear
11:35 AM 74.8 °F - 8.6 °F 8% 30.07 in 10.0 mi West 6.9 mph 10.4 mph N/A   Clear
11:55 AM 74.5 °F - 9.1 °F 8% 30.06 in 10.0 mi WSW 11.5 mph - N/A   Clear
12:15 PM 75.7 °F - 9.3 °F 8% 30.05 in 10.0 mi West 11.5 mph 20.7 mph N/A   Clear
12:35 PM 76.8 °F - 9.3 °F 8% 30.04 in 10.0 mi SW 9.2 mph - N/A   Clear
12:55 PM 76.8 °F - 9.5 °F 8% 30.03 in 10.0 mi West 10.4 mph 23.0 mph N/A   Clear
1:15 PM 76.6 °F - 9.0 °F 7% 30.02 in 10.0 mi West 10.4 mph 21.9 mph N/A   Clear
1:35 PM 76.8 °F - 9.1 °F 7% 30.01 in 10.0 mi WNW 5.8 mph 17.3 mph N/A   Clear
1:55 PM 77.2 °F - 9.3 °F 7% 30.00 in 10.0 mi West 16.1 mph 21.9 mph N/A   Clear
2:15 PM 75.9 °F - 9.5 °F 8% 29.99 in 10.0 mi SW 10.4 mph - N/A   Clear
2:35 PM 76.1 °F - 9.7 °F 8% 29.98 in 10.0 mi West 9.2 mph 19.6 mph N/A   Clear
2:55 PM 78.3 °F - 9.7 °F 7% 29.97 in 10.0 mi West 10.4 mph 17.3 mph N/A   Clear
3:15 PM 78.6 °F - 9.7 °F 7% 29.97 in 10.0 mi West 8.1 mph 19.6 mph N/A   Clear
3:35 PM 77.2 °F - 9.0 °F 7% 29.96 in 10.0 mi West 6.9 mph - N/A   Clear
3:55 PM 77.2 °F - 9.3 °F 7% 29.96 in 10.0 mi West 9.2 mph 16.1 mph N/A   Clear
4:15 PM 75.7 °F - 8.8 °F 8% 29.96 in 10.0 mi WSW 6.9 mph - N/A   Clear
4:35 PM 75.4 °F - 10.4 °F 8% 29.96 in 10.0 mi SW 8.1 mph - N/A   Clear
4:55 PM 75.6 °F - 11.3 °F 9% 29.95 in 10.0 mi SW 9.2 mph - N/A   Clear
5:15 PM 75.4 °F - 11.3 °F 9% 29.96 in 10.0 mi SW 11.5 mph 18.4 mph N/A   Clear
5:35 PM 75.2 °F - 11.1 °F 9% 29.96 in 10.0 mi SSW 8.1 mph - N/A   Clear
5:55 PM 76.1 °F - 10.8 °F 8% 29.96 in 10.0 mi SW 8.1 mph - N/A   Clear
6:15 PM 74.7 °F - 9.9 °F 8% 29.97 in 10.0 mi West 11.5 mph 16.1 mph N/A   Clear
6:35 PM 72.3 °F - 9.1 °F 9% 29.98 in 10.0 mi West 11.5 mph 16.1 mph N/A   Clear
6:55 PM 69.8 °F - 8.6 °F 9% 29.98 in 10.0 mi West 9.2 mph 17.3 mph N/A   Clear
7:15 PM 66.6 °F - 8.8 °F 10% 29.99 in 10.0 mi West 6.9 mph - N/A   Clear
7:35 PM 63.3 °F - 8.2 °F 11% 30.00 in 10.0 mi West 6.9 mph - N/A   Clear
7:55 PM 59.0 °F - 7.9 °F 13% 30.00 in 10.0 mi WSW 10.4 mph - N/A   Clear
8:15 PM 58.1 °F - 7.9 °F 14% 30.01 in 10.0 mi SW 9.2 mph - N/A   Clear
8:35 PM 57.6 °F - 7.9 °F 14% 30.02 in 10.0 mi SW 8.1 mph - N/A   Clear
8:55 PM 56.5 °F - 7.9 °F 14% 30.03 in 10.0 mi SW 9.2 mph - N/A   Clear
9:15 PM 56.7 °F - 8.4 °F 15% 30.03 in 10.0 mi SW 9.2 mph - N/A   Clear
9:35 PM 56.1 °F - 8.6 °F 15% 30.03 in 10.0 mi SW 8.1 mph - N/A   Clear
9:55 PM 57.9 °F - 9.3 °F 15% 30.04 in 10.0 mi SW 8.1 mph - N/A   Clear
10:15 PM 58.6 °F - 9.1 °F 14% 30.04 in 10.0 mi SW 9.2 mph - N/A   Clear
10:35 PM 54.5 °F - 8.8 °F 16% 30.04 in 10.0 mi WSW 6.9 mph - N/A   Clear
10:55 PM 55.8 °F - 9.1 °F 16% 30.04 in 10.0 mi SW 9.2 mph - N/A   Clear
11:15 PM 53.4 °F - 9.0 °F 17% 30.04 in 10.0 mi WSW 5.8 mph - N/A   Clear
11:35 PM 56.3 °F - 9.5 °F 16% 30.04 in 10.0 mi WSW 9.2 mph - N/A   Clear
11:55 PM 52.7 °F - 9.3 °F 18% 30.04 in 10.0 mi SW 10.4 mph - N/A   Clear